Home   Weather   Klaksvík   Past weeks

Flag for Faroe Islands Past Weather in Klaksvík, Faroe Islands, Faroe Islands — Yesterday and Last 2 Weeks

Now
47 °F

Overcast.


Feels Like: 42 °F
Forecast: 44 / 48 °F
Wind: 10 mph from Southeast

Location: Thorshavn

Current Time: Sep 28, 2016 at 6:19:33 PM

Latest Report: Sep 28, 2016 at 5:00 PM


Visibility: 22 mi

Pressure: 29.64 "Hg

Humidity: 70%

Dew Point: 38 °F

Location of KlaksvíkLocation

Past Weather in Klaksvík — Graph

°F

Klaksvík Temperature Yesterday

Maximum temperature yesterday: 52 °F (at 3:00 PM)
Minimum temperature yesterday: 49 °F (at 1:00 PM)
Average temperature yesterday: 51 °F

High & Low Weather Summary for the Past Weeks

 TemperatureHumidityPressure
High58 °F (Sep 17, 3:00 PM)100% (Sep 15, 3:00 AM)30.15 "Hg (Sep 15, 3:00 AM)
Low46 °F (Sep 28, 6:00 AM)61% (Sep 28, 12:00 PM)29.21 "Hg (Sep 27, 3:00 PM)
Average52 °F89%29.73 "Hg
* Reported Sep 13 4:00 PM — Sep 28 4:00 PM, Klaksvík, Weather by CustomWeather, © 2016

Note: Actual official high and low records may vary slightly from our data, if they occured in-between our weather recording intervals... More about our weather records

Advertising

Klaksvík Weather History for the Previous 24 Hours

Scroll right to see more
 ConditionsComfort  
Time TempWeatherWind HumidityBarometerVisibility
4:00 PM
Wed, Sep 28
47 °FOvercast.8 mph70%29.67 "Hg16 mi
3:00 PM48 °FScattered clouds.7 mph67%29.70 "Hg19 mi
2:00 PM48 °FPassing clouds.3 mph65%29.71 "Hg25 mi
1:00 PM50 °FPassing clouds.7 mph63%29.71 "Hg17 mi
12:00 PM51 °FSunny.6 mph61%29.74 "Hg19 mi
11:00 AM50 °FSunny.7 mph62%29.75 "Hg19 mi
10:00 AM48 °FPassing clouds.7 mph69%29.76 "Hg18 mi
9:00 AM46 °FOvercast.7 mph78%29.75 "Hg19 mi
8:00 AM46 °FOvercast.13 mph79%29.73 "Hg25 mi
7:00 AM46 °FOvercast.6 mph80%29.72 "Hg31 mi
6:00 AM46 °FPassing clouds.17 mph85%29.67 "Hg31 mi
5:00 AM47 °FPassing clouds.17 mph83%29.64 "Hg31 mi
4:00 AM48 °FClear.20 mph83%29.60 "Hg31 mi
3:00 AM49 °FPassing clouds.16 mph84%29.55 "Hg31 mi
2:00 AM50 °FOvercast.16 mph85%29.50 "Hg28 mi
1:00 AM51 °FOvercast.13 mph83%29.44 "Hg31 mi
12:00 AM50 °FOvercast.9 mph85%29.38 "Hg31 mi
11:00 PM
Tue, Sep 27
50 °FOvercast.13 mph82%29.35 "Hg31 mi
10:00 PM50 °FOvercast.9 mph86%29.29 "Hg31 mi
9:00 PM49 °FLow clouds.6 mph98%29.26 "Hg19 mi
8:00 PM50 °FRain showers. Low clouds.8 mph97%29.23 "Hg4 mi
7:00 PM52 °FFog.9 mph93%29.21 "Hg6 mi
6:00 PM52 °FFog.15 mph94%29.21 "Hg4 mi
Weather by CustomWeather, © 2016

See weather overviewHow to use our weather pages